Time,TemperatureF,DewpointF,PressureIn,WindDirection,WindDirectionDegrees,WindSpeedMPH,WindSpeedGustMPH,Humidity,HourlyPrecipIn,Conditions,Clouds,dailyrainin,SoftwareType,DateUTC
2013-07-26 00:07:00,60.8,60.2,29.96,SW,225,1.1,-999.0,98,-99.99,,,0.00,Acu-Link.com,2013-07-26 04:07:00,
2013-07-26 00:22:00,60.6,60.1,29.95,West,270,0.0,-999.0,98,-99.99,,,0.00,Acu-Link.com,2013-07-26 04:22:00,
2013-07-26 00:37:00,60.3,59.7,29.95,SW,225,0.0,-999.0,98,-99.99,,,0.00,Acu-Link.com,2013-07-26 04:37:00,
2013-07-26 00:53:00,60.8,60.2,29.95,SSW,202,0.0,-999.0,98,-99.99,,,0.00,Acu-Link.com,2013-07-26 04:53:00,
2013-07-26 01:08:00,60.8,60.2,29.95,SW,225,0.0,-999.0,98,-99.99,,,0.00,Acu-Link.com,2013-07-26 05:08:00,
2013-07-26 01:23:00,61.5,60.9,29.95,South,180,0.0,-999.0,98,-99.99,,,0.00,Acu-Link.com,2013-07-26 05:23:00,
2013-07-26 01:38:00,62.1,61.5,29.94,NNE,22,0.0,-999.0,98,-99.99,,,0.00,Acu-Link.com,2013-07-26 05:38:00,
2013-07-26 01:53:00,62.6,62.0,29.94,SW,225,0.0,-999.0,98,-99.99,,,0.00,Acu-Link.com,2013-07-26 05:53:00,
2013-07-26 02:09:00,63.3,62.7,29.94,WNW,292,0.0,-999.0,98,-99.99,,,0.00,Acu-Link.com,2013-07-26 06:09:00,
2013-07-26 02:24:00,63.5,62.9,29.93,East,90,1.1,-999.0,98,-99.99,,,0.00,Acu-Link.com,2013-07-26 06:24:00,
2013-07-26 02:39:00,64.0,63.5,29.93,SSW,202,0.0,-999.0,98,-99.99,,,0.00,Acu-Link.com,2013-07-26 06:39:00,
2013-07-26 02:54:00,64.2,63.6,29.93,South,180,0.0,-999.0,98,-99.99,,,0.00,Acu-Link.com,2013-07-26 06:54:00,
2013-07-26 03:10:00,64.4,63.8,29.93,ENE,67,2.2,-999.0,98,-99.99,,,0.00,Acu-Link.com,2013-07-26 07:10:00,
2013-07-26 03:25:00,64.6,64.0,29.94,ESE,112,1.6,-999.0,98,-99.99,,,0.00,Acu-Link.com,2013-07-26 07:25:00,
2013-07-26 03:40:00,64.8,64.2,29.94,NNE,22,3.1,-999.0,98,-99.99,,,0.00,Acu-Link.com,2013-07-26 07:40:00,
2013-07-26 03:55:00,64.9,64.4,29.94,West,270,0.0,-999.0,98,-99.99,,,0.00,Acu-Link.com,2013-07-26 07:55:00,
2013-07-26 04:10:00,65.1,64.5,29.94,West,270,0.0,-999.0,98,-99.99,,,0.00,Acu-Link.com,2013-07-26 08:10:00,
2013-07-26 04:26:00,64.9,64.4,29.94,NNE,22,2.7,-999.0,98,-99.99,,,0.00,Acu-Link.com,2013-07-26 08:26:00,
2013-07-26 04:41:00,64.8,64.2,29.93,NE,45,0.0,-999.0,98,-99.99,,,0.00,Acu-Link.com,2013-07-26 08:41:00,
2013-07-26 04:56:00,64.6,64.0,29.94,West,270,0.0,-999.0,98,-99.99,,,0.00,Acu-Link.com,2013-07-26 08:56:00,
2013-07-26 05:11:00,64.8,64.2,29.94,NNE,22,1.6,-999.0,98,-99.99,,,0.00,Acu-Link.com,2013-07-26 09:11:00,
2013-07-26 05:26:00,64.9,64.4,29.95,SSW,202,1.1,-999.0,98,-99.99,,,0.00,Acu-Link.com,2013-07-26 09:26:00,
2013-07-26 05:42:00,64.9,64.4,29.95,ENE,67,1.1,-999.0,98,-99.99,,,0.00,Acu-Link.com,2013-07-26 09:42:00,
2013-07-26 05:57:00,64.9,64.4,29.96,West,270,0.0,-999.0,98,-99.99,,,0.00,Acu-Link.com,2013-07-26 09:57:00,
2013-07-26 06:12:00,65.1,64.5,29.96,West,270,2.2,-999.0,98,-99.99,,,0.00,Acu-Link.com,2013-07-26 10:12:00,
2013-07-26 06:27:00,64.8,64.2,29.95,NNE,22,0.0,-999.0,98,-99.99,,,0.00,Acu-Link.com,2013-07-26 10:27:00,
2013-07-26 06:42:00,64.6,64.0,29.96,SW,225,0.0,-999.0,98,-99.99,,,0.00,Acu-Link.com,2013-07-26 10:42:00,
2013-07-26 06:58:00,64.6,64.0,29.95,NNE,22,0.0,-999.0,98,-99.99,,,0.00,Acu-Link.com,2013-07-26 10:58:00,
2013-07-26 07:13:00,65.1,64.5,29.96,East,90,0.0,-999.0,98,-99.99,,,0.00,Acu-Link.com,2013-07-26 11:13:00,
2013-07-26 07:28:00,68.9,68.3,29.96,NE,45,0.0,-999.0,98,-99.99,,,0.00,Acu-Link.com,2013-07-26 11:28:00,
2013-07-26 07:43:00,71.1,70.5,29.95,SE,135,0.0,-999.0,98,-99.99,,,0.00,Acu-Link.com,2013-07-26 11:43:00,
2013-07-26 07:58:00,69.6,69.0,29.96,SW,225,0.0,-999.0,98,-99.99,,,0.00,Acu-Link.com,2013-07-26 11:58:00,
2013-07-26 08:14:00,69.6,69.0,29.97,NNE,22,2.2,-999.0,98,-99.99,,,0.00,Acu-Link.com,2013-07-26 12:14:00,
2013-07-26 08:29:00,70.2,69.6,29.97,NE,45,0.0,-999.0,98,-99.99,,,0.00,Acu-Link.com,2013-07-26 12:29:00,
2013-07-26 08:44:00,71.4,70.8,29.98,North,0,1.1,-999.0,98,-99.99,,,0.00,Acu-Link.com,2013-07-26 12:44:00,
2013-07-26 08:59:00,72.3,71.7,29.98,North,0,1.1,-999.0,98,-99.99,,,0.00,Acu-Link.com,2013-07-26 12:59:00,
2013-07-26 09:15:00,73.2,72.6,29.98,NE,45,2.7,-999.0,98,-99.99,,,0.00,Acu-Link.com,2013-07-26 13:15:00,
2013-07-26 09:30:00,73.2,72.6,29.98,NE,45,0.0,-999.0,98,-99.99,,,0.00,Acu-Link.com,2013-07-26 13:30:00,
2013-07-26 09:45:00,74.3,73.7,29.98,West,270,1.6,-999.0,98,-99.99,,,0.00,Acu-Link.com,2013-07-26 13:45:00,
2013-07-26 10:00:00,74.7,74.1,29.99,WNW,292,1.1,-999.0,98,-99.99,,,0.00,Acu-Link.com,2013-07-26 14:00:00,
2013-07-26 10:15:00,74.5,73.9,29.99,NNE,22,4.3,-999.0,98,-99.99,,,0.00,Acu-Link.com,2013-07-26 14:15:00,
2013-07-26 10:30:00,76.8,76.2,29.99,ESE,112,1.6,-999.0,98,-99.99,,,0.00,Acu-Link.com,2013-07-26 14:30:00,
2013-07-26 10:46:00,80.6,80.0,29.98,NE,45,3.8,-999.0,98,-99.99,,,0.00,Acu-Link.com,2013-07-26 14:46:00,
2013-07-26 11:01:00,78.4,77.8,29.98,South,180,1.6,-999.0,98,-99.99,,,0.00,Acu-Link.com,2013-07-26 15:01:00,
2013-07-26 11:31:00,85.6,85.0,29.98,NE,45,0.0,-999.0,98,-99.99,,,0.00,Acu-Link.com,2013-07-26 15:31:00,
2013-07-26 11:46:00,85.1,84.5,29.98,NNE,22,3.8,-999.0,98,-99.99,,,0.00,Acu-Link.com,2013-07-26 15:46:00,
2013-07-26 12:02:00,84.6,83.9,29.98,WNW,292,1.6,-999.0,98,-99.99,,,0.00,Acu-Link.com,2013-07-26 16:02:00,
2013-07-26 12:17:00,84.6,83.9,29.98,West,270,2.7,-999.0,98,-99.99,,,0.00,Acu-Link.com,2013-07-26 16:17:00,
2013-07-26 12:32:00,85.1,84.5,29.97,SSE,157,2.7,-999.0,98,-99.99,,,0.00,Acu-Link.com,2013-07-26 16:32:00,
2013-07-26 12:47:00,84.6,83.9,29.97,ESE,112,2.2,-999.0,98,-99.99,,,0.00,Acu-Link.com,2013-07-26 16:47:00,
2013-07-26 13:02:00,85.1,84.5,29.96,South,180,0.0,-999.0,98,-99.99,,,0.00,Acu-Link.com,2013-07-26 17:02:00,
2013-07-26 13:18:00,86.4,85.7,29.96,ESE,112,0.0,-999.0,98,-99.99,,,0.00,Acu-Link.com,2013-07-26 17:18:00,
2013-07-26 13:33:00,86.5,83.2,29.95,SE,135,0.0,-999.0,90,-99.99,,,0.00,Acu-Link.com,2013-07-26 17:33:00,
2013-07-26 13:48:00,89.1,86.1,29.96,East,90,2.2,-999.0,91,-99.99,,,0.00,Acu-Link.com,2013-07-26 17:48:00,
2013-07-26 14:03:00,90.3,85.5,29.95,SW,225,1.6,-999.0,86,-99.99,,,0.00,Acu-Link.com,2013-07-26 18:03:00,
2013-07-26 14:18:00,89.4,85.4,29.95,East,90,2.7,-999.0,88,-99.99,,,0.00,Acu-Link.com,2013-07-26 18:18:00,
2013-07-26 14:34:00,89.6,83.7,29.95,WSW,247,0.0,-999.0,83,-99.99,,,0.00,Acu-Link.com,2013-07-26 18:34:00,
2013-07-26 14:49:00,88.9,84.5,29.95,NE,45,1.6,-999.0,87,-99.99,,,0.00,Acu-Link.com,2013-07-26 18:49:00,
2013-07-26 15:04:00,90.0,83.3,29.95,NE,45,2.7,-999.0,81,-99.99,,,0.00,Acu-Link.com,2013-07-26 19:04:00,
2013-07-26 15:19:00,86.5,83.9,29.95,ESE,112,2.2,-999.0,92,-99.99,,,0.00,Acu-Link.com,2013-07-26 19:19:00,
2013-07-26 15:34:00,88.0,85.0,29.95,ESE,112,1.1,-999.0,91,-99.99,,,0.00,Acu-Link.com,2013-07-26 19:34:00,
2013-07-26 15:50:00,86.7,86.1,29.95,ENE,67,0.0,-999.0,98,-99.99,,,0.00,Acu-Link.com,2013-07-26 19:50:00,
2013-07-26 16:05:00,84.4,83.8,29.94,North,0,0.0,-999.0,98,-99.99,,,0.00,Acu-Link.com,2013-07-26 20:05:00,
2013-07-26 16:20:00,88.2,86.2,29.95,WSW,247,0.0,-999.0,94,-99.99,,,0.00,Acu-Link.com,2013-07-26 20:20:00,
2013-07-26 16:35:00,84.7,84.1,29.95,SW,225,0.0,-999.0,98,-99.99,,,0.00,Acu-Link.com,2013-07-26 20:35:00,
2013-07-26 16:50:00,85.1,84.5,29.94,SSW,202,0.0,-999.0,98,-99.99,,,0.00,Acu-Link.com,2013-07-26 20:50:00,
2013-07-26 17:05:00,88.9,87.9,29.94,SSW,202,0.0,-999.0,97,-99.99,,,0.00,Acu-Link.com,2013-07-26 21:05:00,
2013-07-26 17:21:00,89.6,86.3,29.94,South,180,1.6,-999.0,90,-99.99,,,0.00,Acu-Link.com,2013-07-26 21:21:00,
2013-07-26 17:36:00,87.1,84.1,29.94,ESE,112,1.1,-999.0,91,-99.99,,,0.00,Acu-Link.com,2013-07-26 21:36:00,
2013-07-26 17:51:00,86.0,84.1,29.94,SW,225,1.6,-999.0,94,-99.99,,,0.00,Acu-Link.com,2013-07-26 21:51:00,
2013-07-26 18:06:00,85.5,84.5,29.94,SSE,157,0.0,-999.0,97,-99.99,,,0.00,Acu-Link.com,2013-07-26 22:06:00,
2013-07-26 18:22:00,83.5,82.9,29.94,South,180,0.0,-999.0,98,-99.99,,,0.00,Acu-Link.com,2013-07-26 22:22:00,
2013-07-26 18:37:00,80.6,80.0,29.94,SSW,202,0.0,-999.0,98,-99.99,,,0.00,Acu-Link.com,2013-07-26 22:37:00,
2013-07-26 18:52:00,80.2,79.6,29.95,SW,225,0.0,-999.0,98,-99.99,,,0.00,Acu-Link.com,2013-07-26 22:52:00,
2013-07-26 19:07:00,79.7,79.1,29.95,WSW,247,0.0,-999.0,98,-99.99,,,0.00,Acu-Link.com,2013-07-26 23:07:00,
2013-07-26 19:22:00,78.1,77.5,29.95,SW,225,0.0,-999.0,98,-99.99,,,0.00,Acu-Link.com,2013-07-26 23:22:00,
2013-07-26 19:38:00,75.9,75.3,29.95,SSW,202,0.0,-999.0,98,-99.99,,,0.00,Acu-Link.com,2013-07-26 23:38:00,
2013-07-26 19:53:00,74.3,73.7,29.95,South,180,0.0,-999.0,98,-99.99,,,0.00,Acu-Link.com,2013-07-26 23:53:00,
2013-07-26 20:08:00,73.0,72.4,29.95,SSW,202,0.0,-999.0,98,-99.99,,,0.00,Acu-Link.com,2013-07-27 00:08:00,
2013-07-26 20:23:00,72.1,71.5,29.96,West,270,0.0,-999.0,98,-99.99,,,0.00,Acu-Link.com,2013-07-27 00:23:00,
2013-07-26 20:38:00,70.5,69.9,29.96,SSW,202,0.0,-999.0,98,-99.99,,,0.00,Acu-Link.com,2013-07-27 00:38:00,
2013-07-26 20:54:00,69.3,68.7,29.96,SSE,157,0.0,-999.0,98,-99.99,,,0.00,Acu-Link.com,2013-07-27 00:54:00,
2013-07-26 21:09:00,68.5,68.0,29.97,West,270,0.0,-999.0,98,-99.99,,,0.00,Acu-Link.com,2013-07-27 01:09:00,
2013-07-26 21:24:00,67.8,67.2,29.96,South,180,0.0,-999.0,98,-99.99,,,0.00,Acu-Link.com,2013-07-27 01:24:00,
2013-07-26 21:39:00,67.3,66.7,29.97,South,180,0.0,-999.0,98,-99.99,,,0.00,Acu-Link.com,2013-07-27 01:39:00,
2013-07-26 21:54:00,66.6,66.0,29.97,SW,225,0.0,-999.0,98,-99.99,,,0.00,Acu-Link.com,2013-07-27 01:54:00,
2013-07-26 22:10:00,66.0,65.4,29.97,SSE,157,0.0,-999.0,98,-99.99,,,0.00,Acu-Link.com,2013-07-27 02:10:00,
2013-07-26 22:25:00,65.3,64.7,29.98,SSE,157,0.0,-999.0,98,-99.99,,,0.00,Acu-Link.com,2013-07-27 02:25:00,
2013-07-26 22:40:00,65.5,64.9,29.99,SE,135,0.0,-999.0,98,-99.99,,,0.00,Acu-Link.com,2013-07-27 02:40:00,
2013-07-26 22:55:00,65.3,64.7,29.98,SE,135,0.0,-999.0,98,-99.99,,,0.00,Acu-Link.com,2013-07-27 02:55:00,
2013-07-26 23:10:00,64.9,64.4,29.99,NE,45,0.0,-999.0,98,-99.99,,,0.00,Acu-Link.com,2013-07-27 03:10:00,
2013-07-26 23:26:00,64.6,64.0,29.99,NE,45,0.0,-999.0,98,-99.99,,,0.00,Acu-Link.com,2013-07-27 03:26:00,
2013-07-26 23:56:00,64.4,63.8,29.99,SW,225,0.0,-999.0,98,-99.99,,,0.00,Acu-Link.com,2013-07-27 03:56:00,